Find Starlink 31474

NORAD ID: 59304 Int'l Des: 2024-056 Owner: SPXS Country: US Constellation: starlink operational
LEOCIRCULAR

Current View

Loading 3D Globe...

About Starlink 31474

Starlink 31474 (NORAD 59304) is a starlink constellation satellite (v2 mini) launched Mar 24, 2024 by SPXS of US. It operates in LEO, CIRCULAR orbit with a mass of 730.00 kg.

About Starlink 31474

Description loading...

Upcoming Passes

Passes for default location (London). Set your location on the main map for personalized predictions.

Altitude History

Loading altitude history...

Two-Line Element Set

1 59304U 24056J 26162.39085414 .00011563 00000-0 42983-3 0 9994
2 59304 42.9940 54.6976 0001158 278.8262 81.2458 15.27519236125566
Epoch: Jun 11, 2026 • Age: 48 hours

Current Status

Altitude 486.5 km
Velocity 7.62 km/s
Sub-Earth Point -16.85°S, 159.74°W
Launch Date Mar 24, 2024
Age 2.2 years
Type internet

Technical Details

Classification Payload
Mass 730.00 kg
Dry Mass 700.00 kg
Total Mass 730.00 kg
Length 0.30 m
Diameter 4.10 m
Span 29.00 m
Shape Box + pan
Manufacturer SPXS
Bus Type Starlink V2M
Phase Status In Orbit
Owner/State SPXS/US

Most Searched